FW5682 Weather Reports


Display with metric or nautical units.
time (UTC)temp
F
wind
direction
speed
MPH
gust
MPH
rain 1hr
in
rain 24hr
in
rain mn
in
humidity
%
barometer
mb
20260510023147 40 11 5.0 9.0 0.00 0.10 0.00 94 1020.6
20260510022647 40 4 4.0 10.0 0.00 0.10 0.00 94 1020.5
20260510022149 40 8 5.0 10.0 0.00 0.10 0.00 94 1020.5
20260510021648 40 0 6.0 9.0 0.00 0.10 0.00 94 1020.5
20260510021146 40 8 5.0 9.0 0.00 0.10 0.00 94 1020.5
20260510020643 40 17 4.0 11.0 0.00 0.10 0.00 94 1020.6
20260510020143 40 0 6.0 11.0 0.00 0.10 0.00 94 1020.5
20260510015643 41 0 4.0 9.0 0.00 0.10 0.00 94 1020.6
20260510015142 41 3 4.0 9.0 0.00 0.10 0.00 94 1020.5
20260510014641 41 1 5.0 10.0 0.00 0.10 0.00 94 1020.6
20260510014405 41 354 5.0 11.0 0.00 0.10 0.00 94 1020.5
20260510013640 41 355 6.0 11.0 0.00 0.10 0.00 94 1020.5
20260510012634 41 343 7.0 13.0 0.00 0.10 0.00 94 1020.5
20260510012134 41 0 6.0 13.0 0.00 0.10 0.00 94 1020.5
20260510011634 41 14 6.0 13.0 0.00 0.10 0.00 94 1020.5
20260510011134 41 10 6.0 13.0 0.00 0.10 0.00 94 1020.6
20260510010634 41 0 8.0 13.0 0.00 0.10 0.00 93 1020.6
20260510010134 41 16 7.0 12.0 0.00 0.10 0.00 93 1020.7
20260510005633 41 7 6.0 11.0 0.00 0.10 0.00 94 1020.7
20260510005134 41 0 7.0 11.0 0.00 0.10 0.00 94 1020.7
20260510004633 42 0 6.0 12.0 0.00 0.10 0.00 93 1020.7
20260510004134 42 0 7.0 12.0 0.00 0.10 0.00 93 1020.7
20260510003634 42 6 6.0 12.0 0.00 0.10 0.00 93 1020.8
20260510003134 42 3 7.0 12.0 0.00 0.10 0.00 93 1020.8
20260510002634 42 0 6.0 11.0 0.00 0.10 0.00 93 1020.9
20260510002359 42 7 6.0 11.0 0.00 0.10 0.00 93 1020.8
20260510001634 42 14 4.0 11.0 0.00 0.10 0.00 93 1020.8
20260510001134 42 7 5.0 11.0 0.00 0.10 0.00 93 1020.9
20260510000634 42 8 6.0 9.0 0.00 0.10 0.00 93 1020.9
20260510000134 42 24 4.0 10.0 0.00 0.10 0.00 93 1020.9
20260509235635 42 3 5.0 10.0 0.00 0.10 0.00 93 1020.8
20260509235134 42 18 6.0 12.0 0.00 0.10 0.00 93 1020.9
20260509234634 42 34 6.0 12.0 0.00 0.10 0.00 93 1020.9
20260509234134 42 16 6.0 15.0 0.00 0.10 0.00 93 1020.9
20260509233633 43 16 6.0 15.0 0.00 0.10 0.00 92 1020.8
20260509233134 43 0 6.0 13.0 0.00 0.10 0.00 92 1020.8
20260509232854 43 0 6.0 14.0 0.00 0.10 0.00 92 1020.8
20260509232357 43 353 8.0 14.0 0.00 0.10 0.00 92 1020.8
20260509231635 43 20 7.0 15.0 0.00 0.10 0.00 92 1020.8
20260509231134 43 0 9.0 15.0 0.00 0.10 0.00 92 1020.8
20260509230633 43 13 6.0 11.0 0.00 0.10 0.00 91 1020.7
20260509230133 43 3 5.0 16.0 0.00 0.10 0.00 91 1020.7
20260509225638 43 0 7.0 16.0 0.00 0.10 0.10 91 1020.7
20260509224634 44 20 8.0 15.0 0.00 0.10 0.10 91 1020.7
20260509224405 44 3 7.0 15.0 0.00 0.10 0.10 91 1020.6
20260509223401 44 20 7.0 17.0 0.00 0.10 0.10 91 1020.6
20260509222633 44 0 8.0 17.0 0.00 0.10 0.10 91 1020.6
20260509222134 44 8 8.0 14.0 0.00 0.10 0.10 91 1020.7
20260509221634 44 0 9.0 15.0 0.00 0.10 0.10 91 1020.7
20260509221131 44 4 8.0 15.0 0.00 0.10 0.10 91 1020.7
20260509220631 44 21 7.0 13.0 0.00 0.10 0.10 91 1020.8
20260509220131 44 0 7.0 13.0 0.00 0.10 0.10 91 1020.8
20260509215629 44 0 6.0 13.0 0.00 0.10 0.10 91 1020.8
20260509215128 44 24 6.0 12.0 0.00 0.10 0.10 91 1020.9
20260509214628 44 28 7.0 12.0 0.00 0.10 0.10 91 1020.9
20260509214127 44 17 6.0 13.0 0.00 0.10 0.10 91 1020.9
20260509213628 44 20 7.0 13.0 0.00 0.10 0.10 91 1020.9
20260509213128 44 20 6.0 15.0 0.00 0.10 0.10 91 1020.9
20260509212627 44 0 9.0 15.0 0.00 0.10 0.10 91 1020.9
20260509212127 44 8 6.0 14.0 0.00 0.10 0.10 91 1020.8
20260509211845 44 23 9.0 14.0 0.00 0.10 0.10 91 1020.9
20260509211126 44 0 7.0 14.0 0.00 0.10 0.10 91 1020.8
20260509210624 44 25 9.0 14.0 0.00 0.10 0.10 91 1020.8
20260509210125 44 10 8.0 14.0 0.00 0.10 0.10 91 1020.7
20260509205625 44 24 9.0 14.0 0.00 0.10 0.10 91 1020.7
20260509205125 44 17 8.0 13.0 0.00 0.10 0.10 91 1020.8
20260509204623 44 0 7.0 14.0 0.00 0.10 0.10 91 1020.8
20260509204124 44 39 7.0 15.0 0.00 0.10 0.10 91 1020.7
20260509203625 44 45 7.0 15.0 0.00 0.10 0.10 91 1020.7
20260509203339 44 42 6.0 14.0 0.00 0.10 0.10 91 1020.8
20260509202621 44 20 7.0 17.0 0.00 0.10 0.10 91 1020.7
20260509202121 44 44 6.0 17.0 0.00 0.10 0.10 91 1020.6
20260509201622 44 27 8.0 14.0 0.00 0.10 0.10 91 1020.6
20260509201345 44 27 8.0 14.0 0.00 0.10 0.10 92 1020.5
20260509200623 44 17 8.0 15.0 0.00 0.10 0.10 92 1020.6
20260509200125 44 21 7.0 15.0 0.00 0.10 0.10 92 1020.6
20260509195625 44 16 7.0 15.0 0.00 0.10 0.10 92 1020.6
20260509195120 44 27 7.0 15.0 0.00 0.10 0.10 92 1020.6
20260509194620 44 27 7.0 15.0 0.00 0.10 0.10 92 1020.6
20260509194123 44 4 9.0 17.0 0.00 0.10 0.10 92 1020.4
20260509193620 44 14 8.0 17.0 0.00 0.10 0.10 92 1020.4
20260509193118 44 0 6.0 17.0 0.00 0.10 0.10 92 1020.3
20260509192619 44 11 8.0 16.0 0.00 0.10 0.10 93 1020.4
20260509192118 44 13 9.0 18.0 0.00 0.10 0.10 93 1020.3
20260509191616 44 32 6.0 18.0 0.00 0.10 0.10 93 1020.3
20260509191332 44 25 10.0 17.0 0.00 0.10 0.10 93 1020.2
20260509190834 44 16 9.0 17.0 0.00 0.10 0.10 93 1020.1
20260509190113 44 358 8.0 15.0 0.00 0.10 0.10 93 1020.2
20260509185614 44 7 9.0 17.0 0.00 0.10 0.10 93 1020.3
20260509185115 44 20 9.0 18.0 0.00 0.10 0.10 93 1020.1
20260509184839 44 8 9.0 18.0 0.00 0.10 0.10 93 1020.1
20260509184114 44 4 9.0 18.0 0.00 0.10 0.10 94 1020.0
20260509183612 44 351 8.0 19.0 0.00 0.10 0.10 94 1020.0
20260509183111 44 7 10.0 19.0 0.00 0.10 0.10 94 1020.0
20260509182831 44 18 11.0 18.0 0.00 0.10 0.10 94 1020.0
20260509182110 44 1 9.0 18.0 0.00 0.10 0.10 94 1019.9
20260509181608 44 3 8.0 18.0 0.00 0.10 0.10 94 1019.9
20260509180827 44 18 9.0 16.0 0.00 0.10 0.10 94 1020.0
20260509180106 44 0 11.0 23.0 0.00 0.10 0.10 94 1020.0
20260509175605 44 0 11.0 23.0 0.00 0.10 0.10 94 1020.0
20260509175105 44 25 13.0 20.0 0.00 0.10 0.10 94 1020.0
20260509174605 44 0 12.0 20.0 0.00 0.10 0.10 94 1019.8
20260509174106 44 17 11.0 20.0 0.00 0.10 0.10 94 1019.8
20260509173605 44 0 10.0 18.0 0.00 0.10 0.10 94 1019.7
20260509173322 44 0 8.0 17.0 0.00 0.10 0.10 94 1019.8
20260509172106 44 0 11.0 18.0 0.00 0.10 0.10 94 1019.7
20260509171604 44 24 10.0 20.0 0.00 0.10 0.10 94 1019.7
20260509171104 44 24 12.0 21.0 0.00 0.10 0.10 94 1019.6
20260509170603 45 0 11.0 21.0 0.00 0.10 0.10 94 1019.6
20260509170327 45 0 9.0 21.0 0.00 0.10 0.10 94 1019.5
20260509165605 45 4 13.0 26.0 0.00 0.10 0.10 94 1019.4
20260509165102 45 20 11.0 26.0 0.00 0.10 0.10 94 1019.4
20260509164601 45 358 13.0 22.0 0.00 0.10 0.10 94 1019.4
20260509163600 45 13 10.0 19.0 0.00 0.10 0.10 94 1019.2
20260509162601 45 34 10.0 19.0 0.00 0.10 0.10 94 1019.2
20260509162100 46 14 12.0 21.0 0.00 0.10 0.10 94 1019.1
20260509161556 46 0 11.0 21.0 0.00 0.10 0.10 94 1019.1
20260509161057 46 350 7.0 21.0 0.00 0.10 0.10 94 1019.1
20260509160557 46 18 11.0 21.0 0.00 0.10 0.10 94 1019.0
20260509160320 46 3 11.0 20.0 0.00 0.10 0.10 94 1019.0
20260509155555 46 357 10.0 17.0 0.00 0.10 0.10 94 1019.0
20260509155054 46 331 8.0 19.0 0.00 0.10 0.10 94 1019.0
20260509154553 46 0 10.0 19.0 0.00 0.10 0.10 94 1019.0
20260509154052 46 3 9.0 18.0 0.00 0.10 0.10 94 1018.9
20260509153553 47 351 8.0 18.0 0.00 0.10 0.10 94 1018.9
20260509153050 47 357 11.0 15.0 0.00 0.10 0.10 93 1019.0
20260509152551 47 0 8.0 20.0 0.00 0.10 0.10 93 1018.9
20260509152050 47 8 9.0 20.0 0.00 0.10 0.10 93 1018.9
20260509151550 47 4 10.0 16.0 0.00 0.10 0.10 93 1018.9
20260509151048 47 0 8.0 19.0 0.00 0.10 0.10 93 1018.9
20260509150546 47 0 11.0 19.0 0.00 0.10 0.10 93 1018.9
20260509150047 47 25 9.0 21.0 0.00 0.10 0.10 93 1018.9
20260509145532 47 1 5.0 21.0 0.01 0.10 0.10 93 1019.0
20260509145032 47 20 9.0 18.0 0.01 0.10 0.10 93 1018.8
20260509144532 47 0 10.0 18.0 0.02 0.10 0.10 93 1018.8
20260509143532 48 0 10.0 15.0 0.02 0.10 0.10 93 1018.8
20260509143305 48 28 5.0 13.0 0.02 0.10 0.10 93 1018.8
20260509142535 48 4 7.0 19.0 0.02 0.10 0.10 92 1018.7
20260509142032 48 0 12.0 19.0 0.02 0.10 0.10 92 1018.7
20260509141533 48 0 8.0 16.0 0.02 0.10 0.10 92 1018.7
20260509141033 48 8 8.0 18.0 0.02 0.10 0.10 92 1018.7
20260509140754 49 357 6.0 18.0 0.02 0.10 0.10 92 1018.7
20260509140031 49 6 8.0 17.0 0.02 0.10 0.10 92 1018.7
20260509135531 49 0 10.0 16.0 0.02 0.08 0.09 91 1018.6
20260509135250 49 358 7.0 15.0 0.02 0.08 0.09 91 1018.7
20260509134750 50 3 8.0 14.0 0.01 0.08 0.08 91 1018.8
20260509134029 50 13 9.0 14.0 0.00 0.08 0.08 91 1018.7
20260509133526 50 17 6.0 13.0 0.00 0.08 0.08 90 1018.6
20260509133027 50 0 7.0 13.0 0.00 0.08 0.08 90 1018.6
20260509132746 50 0 9.0 15.0 0.00 0.08 0.08 90 1018.5
20260509132025 50 354 8.0 15.0 0.00 0.08 0.08 90 1018.6
20260509131525 50 324 7.0 13.0 0.00 0.08 0.08 90 1018.5
20260509131025 51 0 6.0 13.0 0.00 0.08 0.08 91 1018.5
20260509130525 51 0 4.0 13.0 0.00 0.08 0.08 91 1018.5
20260509130023 51 7 5.0 14.0 0.00 0.08 0.08 91 1018.5
20260509125521 51 1 7.0 14.0 0.00 0.08 0.08 91 1018.5
20260509125023 51 0 6.0 11.0 0.00 0.08 0.08 91 1018.4
20260509124522 52 18 7.0 10.0 0.00 0.08 0.08 91 1018.4
20260509124021 52 24 5.0 12.0 0.00 0.08 0.08 91 1018.3
20260509123521 52 14 6.0 13.0 0.00 0.08 0.08 92 1018.4
20260509123021 52 357 4.0 13.0 0.00 0.08 0.08 92 1018.3
20260509122518 52 1 6.0 12.0 0.00 0.08 0.08 92 1018.4
20260509122017 52 353 6.0 12.0 0.00 0.08 0.08 92 1018.4
20260509121737 52 0 8.0 12.0 0.00 0.08 0.08 92 1018.4
20260509121015 52 0 5.0 11.0 0.00 0.08 0.08 92 1018.4
20260509120516 52 32 6.0 10.0 0.00 0.08 0.08 92 1018.3
20260509120013 52 3 6.0 12.0 0.01 0.07 0.08 92 1018.3
20260509115509 51 14 6.0 12.0 0.01 0.07 0.08 92 1018.4
20260509115007 52 11 7.0 11.0 0.02 0.07 0.08 92 1018.3
20260509114507 52 354 7.0 11.0 0.02 0.07 0.08 92 1018.4
20260509114008 52 0 5.0 11.0 0.02 0.07 0.08 92 1018.3
20260509113508 52 0 6.0 10.0 0.02 0.07 0.08 92 1018.3
20260509113009 52 0 5.0 10.0 0.02 0.07 0.08 93 1018.3
20260509112506 51 20 6.0 10.0 0.02 0.07 0.08 93 1018.4
20260509112006 51 32 5.0 11.0 0.02 0.07 0.08 92 1018.3
20260509111508 51 8 5.0 11.0 0.02 0.07 0.08 92 1018.4
20260509111237 51 16 6.0 10.0 0.02 0.07 0.08 92 1018.4
20260509110504 51 0 4.0 9.0 0.02 0.07 0.08 92 1018.5
20260509110014 51 35 5.0 9.0 0.01 0.06 0.07 92 1018.5
20260509105505 51 16 6.0 9.0 0.00 0.06 0.06 92 1018.5
20260509105233 51 28 5.0 9.0 0.00 0.06 0.06 92 1018.5
20260509104506 51 14 4.0 9.0 0.00 0.06 0.06 92 1018.7
20260509104007 51 25 5.0 10.0 0.00 0.06 0.06 92 1018.6
20260509103506 52 0 5.0 10.0 0.00 0.06 0.06 92 1018.6
20260509103009 52 39 4.0 7.0 0.00 0.06 0.06 92 1018.5
20260509102505 51 56 4.0 10.0 0.00 0.06 0.06 92 1018.6
20260509102007 51 6 7.0 10.0 0.00 0.06 0.06 92 1018.6
20260509101507 52 11 6.0 10.0 0.00 0.06 0.06 93 1018.6
20260509101232 52 56 6.0 10.0 0.00 0.06 0.06 93 1018.5
20260509100505 52 0 7.0 10.0 0.00 0.06 0.06 93 1018.5
20260509100245 52 14 5.0 9.0 0.00 0.06 0.06 94 1018.4
20260509095505 51 17 5.0 11.0 0.00 0.06 0.06 94 1018.5
20260509095005 51 47 5.0 11.0 0.00 0.06 0.06 94 1018.5
20260509094501 51 18 6.0 9.0 0.00 0.06 0.06 94 1018.4
20260509094002 51 32 6.0 10.0 0.00 0.06 0.06 94 1018.4
20260509093502 51 30 4.0 10.0 0.00 0.06 0.06 94 1018.3
20260509093002 51 35 5.0 7.0 0.00 0.06 0.06 94 1018.4
20260509092502 50 25 4.0 10.0 0.00 0.06 0.06 94 1018.4
20260509091959 50 0 6.0 10.0 0.00 0.06 0.06 94 1018.4
20260509091500 50 21 3.0 6.0 0.00 0.06 0.06 94 1018.5
20260509090457 49 14 2.0 9.0 0.00 0.06 0.06 94 1018.4
20260509085958 49 0 4.0 9.0 0.00 0.06 0.06 94 1018.4
20260509085456 49 24 4.0 9.0 0.01 0.06 0.06 94 1018.4
20260509084956 49 7 5.0 7.0 0.02 0.06 0.06 94 1018.4
20260509084721 49 14 2.0 7.0 0.02 0.06 0.06 94 1018.4
20260509083955 49 11 3.0 11.0 0.02 0.06 0.06 94 1018.3
20260509083453 49 0 5.0 11.0 0.03 0.06 0.06 94 1018.3
20260509082954 49 3 5.0 10.0 0.04 0.06 0.06 94 1018.1
20260509082454 49 8 4.0 11.0 0.05 0.06 0.06 94 1018.1
20260509081952 49 16 5.0 13.0 0.05 0.06 0.06 94 1018.0
20260509081449 49 4 6.0 13.0 0.05 0.06 0.06 93 1017.9
20260509080947 49 21 6.0 10.0 0.06 0.06 0.06 94 1018.1
20260509080446 49 28 5.0 10.0 0.06 0.06 0.06 94 1018.1
20260509075945 49 30 5.0 10.0 0.06 0.01 0.06 94 1018.0
20260509075708 49 4 5.0 10.0 0.05 0.01 0.06 94 1018.0
20260509074946 49 11 6.0 10.0 0.04 0.01 0.05 93 1018.1
20260509074442 49 358 5.0 10.0 0.04 0.01 0.05 93 1018.1
20260509073942 49 30 6.0 7.0 0.03 0.01 0.04 93 1018.1
20260509073440 49 21 4.0 6.0 0.02 0.01 0.03 93 1018.1
20260509072939 49 14 4.0 6.0 0.02 0.01 0.02 93 1018.0
20260509072706 49 0 5.0 6.0 0.01 0.01 0.02 93 1018.0
20260509071937 49 0 3.0 7.0 0.01 0.01 0.02 93 1018.0
20260509071438 49 0 4.0 7.0 0.01 0.01 0.02 93 1018.0
20260509071158 49 0 3.0 6.0 0.00 0.01 0.01 93 1018.0
20260509070435 49 0 3.0 6.0 0.00 0.01 0.01 93 1017.9
20260509065938 49 355 2.0 4.0 0.00 0.01 0.01 93 1017.9
20260509065153 49 354 2.0 4.0 0.01 0.01 0.01 94 1017.9
20260509064433 49 354 2.0 5.0 0.01 0.01 0.01 94 1017.9
20260509064155 49 354 2.0 5.0 0.01 0.01 0.01 93 1017.8
20260509062933 49 0 1.0 4.0 0.01 0.01 0.01 93 1017.9
20260509062432 49 0 2.0 4.0 0.01 0.01 0.01 93 1017.9
20260509061932 49 0 3.0 5.0 0.01 0.01 0.01 93 1017.8
20260509061429 49 1 2.0 5.0 0.01 0.01 0.01 93 1017.8
20260509060928 49 1 2.0 5.0 0.01 0.01 0.01 93 1017.8
20260509060428 49 0 3.0 6.0 0.01 0.01 0.01 93 1017.7
20260509055926 49 0 3.0 6.0 0.01 0.00 0.01 93 1017.7
20260509055427 49 0 3.0 4.0 0.00 0.00 0.00 93 1017.7
20260509054424 49 0 3.0 4.0 0.00 0.00 0.00 94 1017.6
20260509053923 49 0 2.0 3.0 0.00 0.00 0.00 93 1017.6
20260509053424 49 0 1.0 2.0 0.00 0.00 0.00 93 1017.6
20260509052924 48 0 0.0 3.0 0.00 0.00 0.00 93 1017.6
20260509052423 48 0 2.0 3.0 0.00 0.00 0.00 93 1017.5
20260509051923 48 0 1.0 3.0 0.00 0.00 0.00 93 1017.6
20260509051653 48 0 2.0 4.0 0.00 0.00 0.00 93 1017.5
20260509050922 48 0 2.0 4.0 0.00 0.00 0.00 93 1017.5
20260509050702 48 0 0.0 3.0 0.00 0.00 0.00 93 1017.5
20260509045923 48 0 2.0 4.0 0.00 0.00 0.00 93 1017.4
20260509045423 48 0 2.0 7.0 0.00 0.00 0.00 93 1017.3
20260509044923 48 0 3.0 7.0 0.00 0.00 0.00 93 1017.2
20260509044422 48 4 3.0 7.0 0.00 0.00 0.00 93 1017.2
20260509043922 49 358 2.0 5.0 0.00 0.00 0.00 93 1017.2
20260509043422 49 358 3.0 6.0 0.00 0.00 0.00 93 1017.3
20260509042921 49 358 4.0 6.0 0.00 0.00 0.00 93 1017.3
20260509042421 49 0 4.0 6.0 0.00 0.00 0.00 93 1017.2
20260509041923 49 1 3.0 5.0 0.00 0.00 0.00 93 1017.2
20260509041422 49 1 3.0 4.0 0.00 0.00 0.00 92 1017.2
20260509041142 49 0 2.0 7.0 0.00 0.00 0.00 92 1017.3
20260509040421 49 0 4.0 7.0 0.00 0.00 0.00 92 1017.1
20260509035921 49 0 3.0 9.0 0.00 0.00 0.00 92 1017.1
20260509035421 49 6 3.0 9.0 0.00 0.00 0.00 92 1017.0
20260509034921 49 0 5.0 7.0 0.00 0.00 0.00 92 1017.0
20260509034421 49 0 4.0 7.0 0.00 0.00 0.00 92 1017.1
20260509033923 49 0 4.0 9.0 0.00 0.00 0.00 92 1017.0
20260509033422 49 3 4.0 9.0 0.00 0.00 0.00 92 1017.1
20260509032923 49 4 5.0 9.0 0.00 0.00 0.00 91 1017.0
20260509032422 49 4 4.0 6.0 0.00 0.00 0.00 91 1017.2
20260509031922 49 1 3.0 5.0 0.00 0.00 0.00 91 1017.2
20260509031421 49 3 3.0 6.0 0.00 0.00 0.00 91 1017.3
20260509030920 49 3 4.0 6.0 0.00 0.00 0.00 91 1017.2
20260509030419 49 0 3.0 5.0 0.00 0.00 0.00 91 1017.2
20260509025920 49 0 3.0 5.0 0.00 0.00 0.00 91 1017.3
20260509025643 49 0 3.0 5.0 0.00 0.00 0.00 91 1017.2
20260509024920 49 1 2.0 6.0 0.00 0.00 0.00 90 1017.2
20260509024419 49 0 3.0 9.0 0.00 0.00 0.00 90 1017.3
20260509023919 49 0 3.0 9.0 0.00 0.00 0.00 90 1017.3
20260509023419 49 4 5.0 7.0 0.00 0.00 0.00 90 1017.3